Wind_Speed
15 17 17 16 17 19 19 18 18 16 16 15 15 15 15 15 15 14 14 15 15 15 15 16 17 17 18 18 18 18 19 19 20 20 20 21 22 23 24 25 26 27 28 28
17 18 19 18 18 20 20 20 18 17 16 17 18 16 16 16 16 16 16 16 17 17 17 17 17 18 18 18 19 20 20 21 21 22 22 23 24 25 27 28 29 29 30 31
18 20 22 21 20 21 22 21 20 19 17 17 18 18 18 18 18 18 17 17 17 18 18 18 19 19 19 19 20 21 21 22 23 24 24 25 26 28 29 30 31 32 33 33
19 20 22 20 20 21 21 21 21 20 19 20 21 21 21 21 21 21 20 19 20 20 21 21 20 20 20 20 21 22 23 24 25 26 27 28 29 30 31 33 33 34 35 36
20 20 19 19 20 21 21 21 21 20 20 21 21 21 21 21 22 22 22 22 22 22 22 21 22 22 22 22 23 24 25 26 27 28 29 30 31 33 34 35 36 36 37 38
19 20 20 19 20 21 22 21 21 22 22 22 23 23 23 23 23 23 24 23 24 24 24 24 24 24 24 24 25 26 27 28 29 30 31 32 34 35 37 38 38 39 39 40
19 20 20 20 21 21 22 22 22 23 22 22 23 23 24 24 24 25 26 25 26 27 27 26 26 26 26 26 27 29 29 30 31 32 34 35 37 38 39 40 41 41 41 42
21 21 20 21 21 21 21 21 21 21 22 22 23 23 23 23 24 25 26 26 26 27 27 27 28 28 28 29 29 30 31 32 34 35 37 38 39 41 42 42 43 43 44 44
22 22 22 22 22 22 22 21 21 21 21 22 22 23 23 23 24 25 26 26 26 27 26 27 29 29 30 31 32 33 34 34 36 38 39 40 41 43 44 45 45 46 46 47
24 23 23 23 23 23 22 22 22 22 21 20 21 22 23 24 24 23 24 26 26 26 27 29 30 30 32 33 35 35 36 37 39 40 41 43 44 45 46 47 48 49 49 50
24 24 24 22 23 23 23 22 23 22 21 19 19 21 22 23 22 23 24 25 27 27 28 29 30 32 33 34 36 38 39 40 41 43 44 45 47 48 49 50 51 52 52 53
24 24 24 23 22 23 23 23 23 22 21 21 21 22 22 23 24 24 25 25 26 27 29 31 32 34 35 37 38 40 41 42 44 45 46 48 49 50 51 52 53 54 54 54
25 25 24 23 23 23 24 24 23 22 22 22 23 23 23 23 24 25 26 27 28 30 31 33 34 36 37 39 40 42 43 45 46 48 49 50 51 52 53 54 55 55 56 57
25 25 25 24 24 24 25 25 24 24 23 23 24 23 23 24 25 26 27 29 30 32 33 34 36 37 39 41 42 44 46 47 48 50 51 52 53 54 55 56 56 56 57 58
25 26 26 26 26 25 26 26 27 26 25 24 25 25 25 26 27 28 29 31 32 34 35 37 38 40 41 43 44 46 47 49 50 51 52 53 54 55 57 58 59 59 59 60
25 26 26 26 26 27 28 27 27 26 25 25 26 27 27 28 30 31 32 33 34 36 37 39 40 42 43 45 46 48 49 50 51 52 53 55 56 58 59 60 61 61 61 61
25 26 25 25 25 26 26 26 26 27 26 26 27 28 29 31 32 33 34 36 37 38 40 42 43 44 46 47 48 49 51 52 53 55 56 57 59 59 60 61 61 61 61 60
24 24 24 23 23 24 24 25 26 26 27 28 29 31 33 34 35 36 37 39 40 41 43 45 46 47 49 50 51 52 53 54 55 56 57 58 59 59 59 59 59 58 57 56
24 24 24 24 25 25 26 27 27 28 29 31 32 34 36 37 38 39 41 42 43 44 46 47 49 50 52 53 54 54 55 55 56 56 57 57 56 56 55 54 54 53 51 49
26 26 26 25 26 26 26 27 28 30 32 33 35 36 38 39 41 43 44 46 47 48 49 50 51 52 52 53 53 54 54 54 54 54 54 53 53 52 51 51 50 49 47 44
26 26 26 27 28 29 30 31 32 34 36 37 39 41 43 44 45 46 47 48 49 50 50 51 51 51 51 52 52 52 52 52 51 51 50 50 49 49 48 46 45 43 41 39
29 30 31 32 33 34 35 36 37 39 40 42 43 45 46 47 47 48 48 49 49 49 50 50 49 49 49 49 49 49 49 49 49 48 47 46 45 44 42 41 39 37 34 32
32 33 35 36 37 38 39 41 42 44 45 45 46 47 47 47 47 47 47 48 48 48 48 47 47 47 47 47 47 47 47 46 45 44 43 41 40 39 37 35 33 31 28 26
35 36 38 39 40 41 43 44 45 46 47 47 48 48 47 47 47 47 46 46 45 45 44 44 44 45 45 45 44 43 43 42 40 39 38 37 36 34 32 30 28 26 24 21
38 40 41 42 44 46 47 47 48 47 47 47 46 46 46 45 45 44 44 43 42 42 42 42 42 42 41 40 39 38 37 36 34 33 32 31 30 28 26 23 21 20 18 17
42 43 44 45 45 46 46 46 45 45 44 44 43 42 42 42 41 41 40 39 39 39 39 39 38 37 36 35 34 33 32 31 30 29 27 25 24 22 20 19 18 17 15 13
42 42 43 43 43 43 43 42 42 41 41 40 40 39 38 38 38 37 37 37 36 36 36 35 34 33 32 31 30 29 28 26 24 22 21 21 19 18 17 17 15 13 10 9
Wind_Direction
271 275 279 281 282 283 286 286 284 278 273 271 270 272 270 270 268 265 266 266 258 254 255 252 251 250 250 252 255 259 263 266 269 273 277 280 284 288 291 294 296 298 300 302
272 275 276 279 284 284 286 288 286 282 278 273 268 270 272 271 267 266 267 266 261 258 257 256 256 255 256 258 260 263 266 269 272 276 279 282 285 289 291 294 296 298 299 301
273 274 277 281 284 283 284 285 285 282 278 273 267 264 267 268 267 265 264 263 260 257 256 257 258 259 260 262 265 267 270 273 276 279 282 285 287 290 292 293 295 297 298 300
272 276 278 284 280 280 282 281 282 279 275 273 268 266 266 265 265 263 264 263 261 259 257 256 259 261 263 266 269 272 274 277 279 282 284 287 288 290 291 293 294 295 297 298
273 277 280 281 282 281 283 282 279 276 274 272 270 269 266 266 265 262 264 264 262 260 259 260 261 263 265 268 271 274 276 278 281 283 285 287 288 290 291 292 294 295 297 298
274 277 281 282 282 282 283 282 276 274 274 271 271 270 269 267 263 261 262 263 261 260 260 261 262 265 268 270 273 275 277 279 281 283 285 286 288 289 291 292 293 295 296 297
276 278 281 282 282 281 281 282 277 273 272 272 270 269 268 265 262 260 258 261 261 258 259 261 264 267 269 271 273 275 278 281 283 284 285 286 287 289 290 291 292 294 295 295
274 277 279 280 281 282 283 283 279 275 273 273 268 267 266 266 262 259 259 259 260 258 259 262 266 269 271 273 276 278 280 281 282 283 285 286 287 289 290 291 292 293 294 294
273 275 278 279 280 282 283 284 280 275 274 272 268 266 266 267 267 263 260 258 259 262 264 266 270 272 273 275 277 278 280 282 283 284 286 287 288 289 290 291 291 292 292 293
273 275 277 277 277 278 281 282 279 277 274 271 267 267 267 267 266 263 262 261 263 265 268 271 273 274 274 275 278 279 280 282 284 285 285 286 287 288 289 290 291 292 292 292
273 276 278 278 278 277 278 279 280 276 273 272 271 270 269 268 267 266 266 265 266 267 269 272 275 277 278 279 281 282 284 285 286 286 287 288 289 289 290 290 291 291 291 291
272 274 275 276 277 278 277 278 275 272 272 271 269 269 268 267 268 269 268 268 270 272 274 276 278 280 281 283 283 284 285 286 286 287 287 288 288 289 289 290 290 290 290 290
270 272 273 274 275 276 275 274 272 271 271 270 269 269 269 269 269 271 272 274 275 277 278 279 281 282 283 284 284 285 286 286 287 288 288 288 288 288 288 288 289 290 290 290
271 272 272 272 272 274 274 272 271 271 271 270 270 271 272 273 273 275 276 278 279 281 282 283 284 284 285 286 286 287 287 288 288 289 289 288 289 289 288 288 288 288 288 288
270 271 271 270 270 270 269 269 269 268 269 270 272 273 276 278 278 279 281 282 283 284 285 286 286 287 287 287 287 288 289 289 289 289 289 289 289 289 289 289 288 288 288 287
269 269 270 270 269 269 267 266 266 265 267 271 273 275 279 281 282 283 285 286 287 288 288 289 289 289 290 290 290 290 290 290 290 290 290 290 290 290 289 289 289 289 289 288
268 267 267 267 267 268 266 264 264 265 268 273 275 278 282 283 285 286 288 289 290 290 291 291 292 292 293 293 293 293 292 292 292 292 292 291 291 291 290 290 290 290 290 289
269 270 269 269 270 269 269 267 268 272 274 276 279 282 286 286 287 288 289 290 291 292 293 293 293 294 294 294 294 294 293 293 293 293 293 292 292 292 292 292 292 291 291 290
277 276 275 273 272 272 273 273 273 275 277 280 282 285 288 288 289 290 291 292 293 294 295 295 295 295 295 295 295 294 294 294 294 294 294 294 294 294 294 294 294 293 292 291
278 277 276 276 275 275 276 279 280 281 281 282 285 288 290 290 291 292 293 294 295 296 296 297 296 296 295 295 295 295 295 295 295 295 296 296 296 295 295 295 295 294 293 291
273 273 276 275 274 276 277 279 280 281 283 285 288 290 291 292 293 293 294 295 295 296 296 297 297 297 296 296 296 296 296 296 297 297 297 297 297 297 296 296 296 295 293 291
275 277 279 277 276 275 276 279 281 284 287 290 291 292 293 294 295 295 296 296 297 297 298 298 298 298 298 298 298 298 298 299 299 299 299 299 299 299 299 298 297 296 295 292
275 275 277 278 278 279 280 283 286 288 290 292 293 295 295 296 297 297 297 298 298 299 299 299 299 299 299 299 299 299 299 300 300 300 300 300 301 301 300 300 300 298 296 293
274 275 277 279 280 283 285 288 290 292 293 295 295 296 297 297 298 298 299 299 299 299 299 299 299 300 300 301 300 301 301 301 302 302 301 301 302 302 302 302 301 299 296 294
277 279 281 282 284 286 289 290 292 293 295 296 296 297 297 298 298 299 299 299 300 300 300 300 300 301 301 302 302 303 303 304 304 305 305 306 306 305 304 303 304 304 301 295
282 285 286 287 288 289 290 292 293 294 295 295 296 296 297 297 298 299 300 300 301 301 301 301 301 301 302 304 304 305 306 306 306 307 308 310 311 309 308 308 308 307 303 298
286 287 289 290 290 291 292 293 293 294 294 295 295 296 297 298 299 299 299 300 302 302 303 303 303 303 304 306 307 308 309 309 310 311 312 314 315 314 314 315 313 308 303 297
Height
5831 5830 5830 5830 5830 5829 5829 5829 5829 5829 5830 5831 5831 5831 5831 5831 5830 5830 5830 5829 5829 5828 5828 5828 5828 5828 5828 5828 5828 5828 5828 5828 5827 5827 5826 5825 5823 5822 5821 5819 5818 5816 5814 5811
5826 5825 5825 5825 5825 5824 5824 5824 5824 5824 5826 5826 5827 5827 5827 5827 5827 5826 5826 5826 5825 5825 5824 5824 5824 5823 5823 5823 5823 5823 5822 5822 5821 5821 5819 5818 5817 5815 5814 5812 5811 5809 5807 5804
5820 5820 5819 5820 5820 5819 5819 5818 5819 5819 5821 5821 5821 5821 5822 5822 5822 5822 5821 5821 5821 5820 5819 5819 5819 5818 5818 5818 5817 5817 5816 5816 5815 5814 5813 5811 5810 5808 5807 5805 5803 5801 5799 5796
5814 5815 5814 5817 5814 5813 5813 5813 5813 5813 5814 5814 5815 5815 5815 5816 5816 5815 5815 5815 5815 5814 5814 5813 5813 5812 5812 5811 5811 5810 5809 5809 5808 5806 5805 5804 5802 5801 5799 5797 5795 5792 5790 5787
5807 5807 5808 5809 5808 5807 5807 5808 5807 5807 5808 5808 5808 5809 5809 5809 5808 5808 5808 5808 5808 5808 5807 5807 5806 5806 5805 5805 5804 5803 5802 5801 5800 5799 5797 5796 5794 5792 5790 5788 5786 5783 5780 5778
5801 5801 5802 5804 5803 5801 5802 5802 5802 5801 5801 5801 5801 5802 5802 5801 5801 5801 5801 5800 5800 5800 5800 5800 5800 5799 5798 5797 5797 5796 5794 5793 5792 5791 5789 5787 5785 5783 5781 5778 5776 5773 5771 5768
5795 5795 5796 5797 5796 5796 5796 5796 5795 5794 5794 5794 5794 5794 5794 5793 5793 5793 5793 5793 5792 5792 5793 5793 5792 5792 5791 5790 5789 5787 5786 5785 5784 5782 5780 5778 5776 5774 5771 5768 5766 5763 5760 5757
5790 5790 5792 5790 5790 5790 5789 5788 5787 5787 5786 5786 5786 5786 5786 5785 5785 5785 5785 5785 5785 5785 5785 5785 5784 5783 5783 5782 5780 5779 5778 5777 5775 5773 5771 5768 5766 5763 5760 5758 5755 5752 5749 5746
5785 5786 5785 5784 5783 5783 5782 5782 5781 5780 5779 5779 5779 5778 5778 5778 5778 5778 5777 5777 5777 5777 5777 5776 5776 5775 5774 5773 5772 5770 5769 5767 5765 5763 5760 5758 5755 5752 5749 5746 5743 5740 5737 5734
5777 5778 5778 5777 5776 5776 5775 5775 5774 5773 5773 5772 5772 5771 5771 5771 5770 5770 5769 5769 5769 5769 5768 5767 5767 5766 5765 5764 5762 5761 5759 5757 5754 5752 5749 5746 5743 5740 5737 5733 5730 5726 5723 5720
5770 5771 5770 5770 5769 5769 5769 5768 5767 5766 5765 5765 5765 5764 5764 5763 5762 5762 5762 5762 5761 5761 5760 5759 5758 5756 5755 5754 5752 5750 5747 5745 5743 5740 5737 5734 5731 5727 5724 5720 5716 5713 5709 5705
5763 5763 5763 5763 5762 5762 5761 5761 5760 5759 5759 5758 5758 5757 5757 5756 5756 5755 5754 5754 5753 5752 5751 5750 5748 5747 5745 5743 5741 5739 5736 5733 5731 5727 5724 5721 5718 5714 5710 5706 5702 5697 5693 5689
5756 5755 5756 5756 5755 5755 5754 5753 5753 5752 5751 5751 5750 5750 5749 5749 5748 5748 5747 5746 5745 5743 5742 5740 5738 5736 5734 5732 5730 5727 5724 5721 5718 5714 5711 5707 5703 5699 5696 5692 5686 5681 5677 5672
5748 5748 5748 5748 5748 5747 5746 5745 5745 5744 5744 5743 5743 5742 5742 5741 5740 5739 5738 5737 5735 5734 5732 5730 5728 5726 5723 5720 5717 5714 5711 5707 5704 5700 5696 5692 5687 5683 5679 5675 5671 5667 5661 5656
5740 5740 5740 5740 5739 5739 5738 5738 5737 5736 5736 5735 5735 5734 5734 5733 5731 5730 5729 5727 5725 5723 5721 5719 5716 5714 5711 5708 5704 5701 5697 5694 5689 5685 5680 5676 5671 5667 5662 5657 5653 5649 5644 5639
5733 5732 5732 5732 5731 5731 5730 5730 5729 5728 5728 5727 5726 5726 5725 5723 5722 5720 5719 5717 5715 5712 5710 5707 5704 5701 5698 5694 5691 5687 5683 5678 5674 5669 5665 5660 5654 5649 5644 5639 5634 5629 5625 5620
5725 5724 5724 5723 5723 5722 5722 5721 5721 5720 5719 5718 5718 5716 5715 5714 5712 5710 5708 5706 5703 5701 5698 5695 5691 5688 5684 5680 5676 5672 5667 5662 5657 5652 5647 5642 5636 5631 5625 5620 5615 5610 5606 5600
5718 5717 5716 5716 5715 5714 5713 5713 5712 5711 5710 5709 5708 5707 5705 5703 5701 5699 5697 5694 5691 5688 5685 5681 5677 5673 5669 5665 5660 5656 5651 5646 5641 5635 5630 5624 5618 5612 5607 5601 5596 5591 5587 5582
5710 5709 5708 5707 5707 5706 5705 5704 5703 5702 5701 5700 5698 5697 5694 5692 5690 5687 5684 5681 5678 5675 5671 5667 5663 5658 5654 5649 5644 5639 5634 5629 5623 5618 5612 5606 5600 5594 5589 5583 5578 5573 5568 5565
5702 5701 5700 5699 5698 5697 5696 5695 5694 5692 5691 5689 5687 5685 5682 5680 5677 5674 5671 5668 5664 5660 5656 5652 5648 5643 5638 5633 5627 5622 5617 5612 5606 5601 5595 5589 5583 5578 5572 5567 5562 5557 5553 5549
5693 5692 5691 5690 5689 5687 5686 5685 5683 5682 5680 5678 5675 5673 5670 5667 5664 5661 5658 5654 5650 5646 5641 5637 5632 5627 5622 5616 5611 5606 5600 5595 5590 5584 5579 5573 5568 5562 5557 5552 5547 5543 5539 5535
5684 5683 5682 5680 5679 5677 5675 5674 5672 5670 5668 5665 5663 5660 5657 5654 5650 5647 5643 5639 5635 5630 5626 5621 5616 5611 5606 5601 5596 5590 5585 5579 5574 5569 5564 5558 5553 5548 5543 5539 5534 5530 5526 5524
5675 5673 5671 5670 5668 5666 5665 5662 5660 5658 5655 5652 5649 5646 5643 5640 5636 5632 5629 5624 5620 5615 5611 5606 5601 5596 5591 5586 5581 5576 5571 5566 5560 5555 5550 5545 5541 5536 5532 5527 5523 5519 5516 5514
5664 5662 5660 5658 5656 5654 5652 5650 5647 5644 5641 5638 5635 5632 5629 5625 5621 5617 5614 5610 5605 5601 5596 5592 5587 5583 5578 5573 5568 5563 5558 5553 5548 5543 5538 5534 5529 5525 5522 5518 5514 5511 5509 5507
5652 5650 5649 5647 5645 5642 5640 5637 5634 5631 5628 5625 5621 5618 5614 5611 5608 5604 5600 5596 5592 5588 5584 5579 5575 5570 5566 5561 5556 5552 5547 5542 5538 5533 5529 5524 5520 5517 5513 5510 5507 5505 5503 5501
5641 5639 5636 5634 5632 5629 5627 5624 5621 5618 5615 5612 5609 5605 5602 5598 5595 5591 5588 5584 5580 5576 5572 5568 5563 5559 5555 5551 5546 5542 5538 5533 5529 5525 5521 5517 5513 5510 5507 5504 5502 5500 5498 5497
5628 5626 5624 5621 5619 5616 5613 5611 5608 5605 5602 5599 5596 5593 5590 5587 5584 5580 5577 5573 5570 5566 5561 5557 5553 5550 5546 5542 5538 5534 5530 5526 5523 5519 5516 5512 5509 5506 5503 5501 5498 5496 5495 5494